This is the latest recevied weather packets stored in our database for station/object N4HAC. If no packets are shown the sender has not sent any weather packets the latest 10 day(s).
| Time | Temp. | Humidity | Pressure | Rain* | Wind** | Luminosity | Snow |
|---|---|---|---|---|---|---|---|
| 1777908894 | 20° C | 44% | 1008 hPa | 0 mm | - | 843 W/m² | - |
| 1777908591 | 19.44° C | 43% | 1008.1 hPa | 0 mm | - | 834 W/m² | - |
| 1777908288 | 19.44° C | 44% | 1008 hPa | 0 mm | - | 826 W/m² | - |
| 1777907984 | 19.44° C | 43% | 1007.9 hPa | 0 mm | - | 813 W/m² | - |
| 1777907680 | 18.89° C | 42% | 1008 hPa | 0 mm | - | 800 W/m² | - |
| 1777907375 | 18.89° C | 43% | 1008 hPa | 0 mm | - | 787 W/m² | - |
| 1777907072 | 19.44° C | 45% | 1008.2 hPa | 0 mm | - | 775 W/m² | - |
| 1777906770 | 18.33° C | 41% | 1008.2 hPa | 0 mm | - | 762 W/m² | - |
| 1777906466 | 18.33° C | 47% | 1008.1 hPa | 0 mm | - | 746 W/m² | - |
| 1777906163 | 18.33° C | 46% | 1008.4 hPa | 0 mm | - | 736 W/m² | - |
| 1777905860 | 18.33° C | 47% | 1008.4 hPa | 0 mm | - | 722 W/m² | - |
| 1777905556 | 18.33° C | 43% | 1008.5 hPa | 0 mm | - | 711 W/m² | - |
| 1777905254 | 18.33° C | 45% | 1008.4 hPa | 0 mm | - | 702 W/m² | - |
| 1777904951 | 17.78° C | 44% | 1008.3 hPa | 0 mm | - | 694 W/m² | - |
| 1777904648 | 18.33° C | 46% | 1008.4 hPa | 0 mm | - | 679 W/m² | - |
| 1777904345 | 17.78° C | 45% | 1008.3 hPa | 0 mm | - | 670 W/m² | - |
| 1777904042 | 17.22° C | 48% | 1008.5 hPa | 0 mm | - | 657 W/m² | - |
| 1777903738 | 17.78° C | 46% | 1008.4 hPa | 0 mm | - | 646 W/m² | - |
| 1777903434 | 17.22° C | 46% | 1008.6 hPa | 0 mm | - | 630 W/m² | - |
| 1777903131 | 17.78° C | 44% | 1008.6 hPa | 0 mm | - | 617 W/m² | - |
| 1777902827 | 17.22° C | 49% | 1008.7 hPa | 0 mm | - | 604 W/m² | - |
| 1777902525 | 16.67° C | 47% | 1008.8 hPa | 0 mm | - | 593 W/m² | - |
| 1777902222 | 16.11° C | 46% | 1009 hPa | 0 mm | - | 579 W/m² | - |
| 1777901920 | 16.11° C | 45% | 1008.8 hPa | 0 mm | - | 564 W/m² | - |
| 1777901618 | 15.56° C | 45% | 1008.7 hPa | 0 mm | - | 543 W/m² | - |
* Rain latest hour (hover to see other rain measurements)
** Current wind speed in m/s (hover to see current wind gust speed)